Stations météo

réclame
Mon MeteoGroup
Metz-Nancy-Lorraine, France (7093): Température de l'air & dewpoint: 22.02.2020 19:00:00 - 28.02.2020 19:00:00 (CET)Metz-Nancy-Lorraine, France (7093): Vitesse du vent & gusts: 22.02.2020 19:00:00 - 28.02.2020 19:00:00 (CET)Metz-Nancy-Lorraine, France (7093): Direction du vent: 22.02.2020 19:00:00 - 28.02.2020 19:00:00 (CET)Metz-Nancy-Lorraine, France (7093): reduced air pressure: 22.02.2020 19:00:00 - 28.02.2020 19:00:00 (CET)Metz-Nancy-Lorraine, France (7093): visibility: 22.02.2020 19:00:00 - 28.02.2020 19:00:00 (CET)Metz-Nancy-Lorraine, France (7093): Ensoleillement: 22.02.2020 19:00:00 - 28.02.2020 19:00:00 (CET)Metz-Nancy-Lorraine, France (7093): Quantités de précipitations: 22.02.2020 19:00:00 - 28.02.2020 19:00:00 (CET)
Date & Time tt [°C] td [°C] ff [km/h] ff [knt] fx [km/h] fx [knt] dd ppp [hPa] vv [km] sd [min] rr [mm]
28.02.2020 19:00:00 6,9 -1,8 24 13 39 21 S 1013,3 41 0 0,0
28.02.2020 18:00:00 6,8 -1,6 22 12 36 20 SSE 1014,2 43 0 0,0
28.02.2020 17:00:00 7,3 -1,2 25 14 37 20 S 1015,3 40 0 0,0
28.02.2020 16:00:00 7,7 -0,5 21 11 36 19 SSE 1016,4 42 20 0,0
28.02.2020 15:00:00 7,9 -0,3 23 13 39 21 S 1017,2 20 35 0,0
28.02.2020 14:00:00 7,9 0,6 26 14 36 19 S 1018,2 36 47 0,0
28.02.2020 13:00:00 7,9 0,4 24 13 35 19 SSW 1019,6 14 41 0,0
28.02.2020 12:00:00 6,7 0,4 22 12 36 19 SSW 1020,6 24 55 0,0
28.02.2020 11:00:00 5,6 1,7 18 10 26 14 SSW 1021,2 16 60 0,0
28.02.2020 10:00:00 3,6 1,1 16 8 25 13 S 1021,7 15 60 0,0
28.02.2020 09:00:00 1,6 0,0 17 9 25 14 S 1022,2 13 55 0,0
28.02.2020 08:00:00 -0,3 -1,1 19 10 25 13 S 1022,1 12 16 0,0
28.02.2020 07:00:00 -1,1 -1,9 15 8 23 12 S 1021,4 13 0 0,0
28.02.2020 06:00:00 0,3 -1,3 14 8 22 12 WSW 1020,3 18 0 0,0
28.02.2020 05:00:00 0,1 -1,0 17 9 22 12 WSW 1019,9 19 0 0,0
28.02.2020 04:00:00 0,7 -0,8 14 7 22 12 SW 1019,3 26 0 0,0
28.02.2020 03:00:00 1,0 -0,9 14 7 23 12 WSW 1018,6 25 0 0,0
28.02.2020 02:00:00 1,5 -0,3 14 8 31 17 WSW 1018,0 19 0 0,0
28.02.2020 01:00:00 2,0 -0,3 23 12 44 24 W 1016,2 19 0 0,0
28.02.2020 00:00:00 2,3 -0,3 29 15 44 24 W 1014,7 29 0 0,0
27.02.2020 23:00:00 2,7 -0,4 30 16 54 29 WNW 1013,3 39 0 0,0
27.02.2020 22:00:00 2,8 0,8 32 17 54 29 WNW 1011,7 19 0 0,0
27.02.2020 21:00:00 3,1 -0,2 41 22 72 39 WNW 1008,9 39 0 0,0
27.02.2020 20:00:00 2,9 -0,2 37 20 66 36 WNW 1006,0 49 0 0,0
27.02.2020 19:00:00 3,0 -0,3 48 26 79 42 WNW 1002,0 60 0 0,0
27.02.2020 18:00:00 3,2 0,1 57 31 98 53 W 997,8 59 16 0,0
27.02.2020 17:00:00 4,4 1,8 68 37 104 56 WNW 993,1 26 8 2,0
27.02.2020 16:00:00 5,3 5,2 38 20 57 31 SSW 988,4 4,9 0 1,0
27.02.2020 15:00:00 3,0 2,9 32 17 48 26 SSW 990,2 5 0 0,7
27.02.2020 14:00:00 0,5 0,4 34 18 51 28 SSE 992,6 1,7 0 2,0
27.02.2020 13:00:00 0,4 0,3 35 19 61 33 SSE 995,4 1,1 0 2,0
27.02.2020 12:00:00 0,4 0,1 27 15 46 25 SSE 998,1 0,7 0 1,6
27.02.2020 11:00:00 2,1 0,9 33 18 46 25 S 1001,0 8 0 0,2
27.02.2020 10:00:00 2,4 1,1 24 13 37 20 S 1003,5 12 0 0,0
27.02.2020 09:00:00 1,7 0,7 25 14 39 21 SSE 1005,5 24 0 0,0
27.02.2020 08:00:00 1,3 0,4 27 15 37 20 SSE 1007,0 18 0 0,0
27.02.2020 07:00:00 1,0 0,3 20 11 26 14 SSE 1008,3 23 0 0,0
27.02.2020 06:00:00 0,9 0,2 17 9 24 13 S 1009,4 27 0 0,0
27.02.2020 05:00:00 1,3 0,4 16 9 25 14 SSW 1009,9 26 0 0,0
27.02.2020 04:00:00 1,3 0,6 19 10 27 15 SSW 1010,8 22 0 0,0
27.02.2020 03:00:00 1,5 0,6 22 12 29 16 SSW 1011,2 24 0 0,0
27.02.2020 02:00:00 1,2 0,5 19 10 28 15 SSW 1011,6 23 0 0,0
27.02.2020 01:00:00 0,9 0,2 19 11 28 15 SSW 1011,7 27 0 0,0
27.02.2020 00:00:00 2,2 1,2 22 12 29 16 SW 1011,7 27 0 0,0
26.02.2020 23:00:00 1,9 1,2 18 10 26 14 SW 1011,7 23 0 0,0
26.02.2020 22:00:00 1,3 0,4 17 9 29 16 SW 1011,3 28 0 0,0
26.02.2020 21:00:00 2,0 1,1 23 12 33 18 SW 1011,0 25 0 0,2
26.02.2020 20:00:00 1,9 0,9 19 11 29 16 SW 1010,6 29 0 0,0
26.02.2020 19:00:00 2,3 0,4 21 12 31 17 WSW 1009,7 38 0 0,0
26.02.2020 18:00:00 2,6 0,5 20 11 30 16 WSW 1008,9 42 37 0,0
26.02.2020 17:00:00 2,8 -0,5 22 12 42 23 W 1008,5 50 24 0,0
26.02.2020 16:00:00 2,3 0,5 23 13 51 28 W 1007,5 10 0 1,4
26.02.2020 15:00:00 4,4 0,2 27 15 52 28 W 1006,4 29 5 0,0
26.02.2020 14:00:00 3,6 -0,4 29 16 44 24 W 1005,9 32 0 0,0
26.02.2020 13:00:00 3,4 0,1 31 17 50 27 W 1005,6 35 0 0,0
26.02.2020 12:00:00 3,5 0,7 30 16 49 26 W 1004,9 39 11 0,0
26.02.2020 11:00:00 2,3 0,2 29 15 48 26 W 1004,1 17 0 0,0
26.02.2020 10:00:00 1,3 0,1 27 15 51 28 W 1003,7 12 0 0,0
26.02.2020 09:00:00 0,8 0,2 29 16 42 23 W 1002,7 59 0 0,2
26.02.2020 08:00:00 0,3 0,3 22 12 43 23 WSW 1001,5 2,7 0 1,2
26.02.2020 07:00:00 0,6 0,2 29 16 54 29 SW 1001,1 1,5 0 0,6
26.02.2020 06:00:00 2,5 0,4 27 14 60 33 WSW 1000,7 38 0 0,0
26.02.2020 05:00:00 2,9 0,0 35 19 62 34 WSW 1000,8 44 0 0,0
26.02.2020 04:00:00 3,1 -0,2 38 21 57 31 WSW 1000,8 45 0 0,0
26.02.2020 03:00:00 3,0 0,4 31 17 54 29 WSW 1001,1 43 0 0,0
26.02.2020 02:00:00 2,6 1,0 35 19 58 31 WSW 1001,2 36 0 0,0
26.02.2020 01:00:00 1,7 1,1 29 16 43 23 SW 1001,0 56 0 0,0
26.02.2020 00:00:00 0,9 0,5 21 11 46 25 WSW 1001,0 3,2 0 3,4
25.02.2020 23:00:00 3,2 2,5 27 15 37 20 SSW 1000,8 35 0 0,0
25.02.2020 22:00:00 2,7 1,8 27 15 40 22 SW 1001,7 47 0 0,0
25.02.2020 21:00:00 3,3 1,3 29 16 66 35 SW 1002,2 50 0 0,2
25.02.2020 20:00:00 5,6 2,8 27 14 72 39 WSW 1002,6 49 0 0,0
25.02.2020 19:00:00 6,9 3,3 29 16 41 22 SW 1002,5 49 0 0,0
25.02.2020 18:00:00 6,8 3,2 29 16 48 26 SW 1002,6 46 38 0,0
25.02.2020 17:00:00 8,8 3,4 22 12 45 25 WSW 1002,8 25 57 0,0
25.02.2020 16:00:00 8,7 3,3 31 17 46 25 WSW 1003,7 27 51 0,0
25.02.2020 15:00:00 7,8 5,6 27 15 41 22 W 1004,2 20 2 0,0
25.02.2020 14:00:00 6,8 6,1 26 14 38 20 WSW 1005,0 5 0 0,0
25.02.2020 13:00:00 7,0 5,0 27 15 45 24 WSW 1005,9 19 11 0,0
25.02.2020 12:00:00 6,9 4,4 30 16 44 24 W 1006,7 25 0 0,0
25.02.2020 11:00:00 6,7 5,8 25 14 46 25 WNW 1006,7 12 0 0,8
25.02.2020 10:00:00 7,5 6,9 27 14 43 23 SW 1006,6 8 0 0,2
25.02.2020 09:00:00 7,1 6,7 29 15 46 25 SW 1006,8 6 0 0,4
25.02.2020 08:00:00 6,8 6,2 32 18 46 25 SSW 1007,1 10 0 0,8
25.02.2020 07:00:00 6,8 6,2 30 16 47 25 SW 1007,8 10 0 0,4
25.02.2020 06:00:00 6,8 6,2 32 17 46 25 SW 1008,2 11 0 0,8
25.02.2020 05:00:00 6,9 6,2 29 16 42 23 SW 1008,7 8 0 1,2
25.02.2020 04:00:00 7,0 6,4 28 15 46 25 SW 1009,3 7 0 0,6
25.02.2020 03:00:00 7,5 6,3 29 16 51 28 SW 1009,9 9 0 0,0
25.02.2020 02:00:00 8,2 6,0 33 18 52 28 WSW 1010,5 33 0 0,0
25.02.2020 01:00:00 8,8 5,7 34 18 52 28 WSW 1011,1 38 0 0,0
25.02.2020 00:00:00 9,1 5,6 36 19 51 28 WSW 1011,8 40 0 0,0
24.02.2020 23:00:00 9,3 5,8 37 20 53 29 WSW 1012,2 39 0 0,0
24.02.2020 22:00:00 9,6 5,9 36 20 61 33 SW 1012,8 38 0 0,0
24.02.2020 21:00:00 10,1 5,9 38 21 57 31 SW 1013,6 43 0 0,0
24.02.2020 20:00:00 10,4 6,0 32 17 58 32 W 1014,0 42 0 0,0
24.02.2020 19:00:00 10,7 6,8 34 19 50 27 W 1013,8 42 0 0,0
24.02.2020 18:00:00 11,9 7,6 30 16 52 28 WSW 1013,2 52 28 0,0
24.02.2020 17:00:00 12,4 8,9 22 12 46 25 WSW 1013,9 53 31 0,0
24.02.2020 16:00:00 12,6 8,9 32 17 54 29 WSW 1014,9 11 26 0,0
24.02.2020 15:00:00 11,6 8,8 29 16 44 24 SW 1016,3 38 0 0,0
24.02.2020 14:00:00 11,4 9,3 31 17 52 28 SSW 1017,7 46 0 0,0
24.02.2020 13:00:00 11,2 9,5 36 20 49 26 SW 1018,7 38 0 0,0
24.02.2020 12:00:00 10,6 9,2 32 17 47 25 SW 1020,5 31 0 0,0
24.02.2020 11:00:00 10,2 9,0 27 14 37 20 SW 1021,3 20 0 0,0
24.02.2020 10:00:00 8,4 8,3 16 9 22 12 S 1022,4 13 0 0,0
24.02.2020 09:00:00 6,5 6,4 19 10 27 15 SSE 1023,5 2,5 0 0,0
24.02.2020 08:00:00 5,8 5,7 8 4 18 10 ESE 1024,3 1,6 0 0,4
24.02.2020 07:00:00 5,6 5,3 6 3 8 4 SE 1025,0 1,6 0 0,2
24.02.2020 06:00:00 5,7 5,3 5 3 13 7 NNE 1025,7 1,9 0 0,4
24.02.2020 05:00:00 6,5 4,3 8 5 16 9 NW 1026,0 18 0 0,0
24.02.2020 04:00:00 7,1 4,2 13 7 23 13 WNW 1026,1 43 0 0,0
24.02.2020 03:00:00 7,2 5,3 12 7 22 12 W 1026,2 49 0 0,0
24.02.2020 02:00:00 7,1 6,7 13 7 23 12 NW 1026,7 12 0 0,0
24.02.2020 01:00:00 8,9 8,6 16 9 31 17 W 1026,1 7 0 0,2
24.02.2020 00:00:00 9,2 8,4 22 12 50 27 W 1025,5 14 0 0,8
23.02.2020 23:00:00 11,0 9,9 29 16 47 26 WSW 1024,3 6 0 0,0
23.02.2020 22:00:00 10,8 9,7 34 18 59 32 WSW 1023,7 10 0 0,0
23.02.2020 21:00:00 11,0 9,6 37 20 65 35 WSW 1023,1 7 0 0,0
23.02.2020 20:00:00 11,1 9,4 44 24 68 37 WSW 1022,7 12 0 0,0
23.02.2020 19:00:00 11,1 8,8 45 24 69 37 SW 1022,2 27 0 0,0
23.02.2020 18:00:00 10,8 8,6 44 24 72 39 WSW 1022,1 36 0 0,0
23.02.2020 17:00:00 10,6 8,4 44 24 66 36 SW 1021,7 27 0 0,0
23.02.2020 16:00:00 10,8 8,2 40 21 69 38 SW 1021,9 46 0 0,0
23.02.2020 15:00:00 10,5 8,1 39 21 59 32 SW 1021,6 44 0 0,0
23.02.2020 14:00:00 10,6 8,2 37 20 65 35 SW 1022,5 43 0 0,0
23.02.2020 13:00:00 10,7 8,1 40 22 57 31 SW 1022,7 38 0 0,0
23.02.2020 12:00:00 10,4 8,2 29 16 51 28 SW 1023,8 41 0 0,0
23.02.2020 11:00:00 9,6 7,5 39 21 60 32 SW 1023,4 40 0 0,0
23.02.2020 10:00:00 9,6 7,5 49 26 73 40 SW 1023,4 31 0 0,0
23.02.2020 09:00:00 9,1 7,2 40 22 56 31 SW 1023,6 36 0 0,0
23.02.2020 08:00:00 8,5 7,1 36 19 53 29 SSW 1024,3 30 0 0,0
23.02.2020 07:00:00 8,1 6,9 29 16 41 22 SSW 1025,5 12 0 0,0
23.02.2020 06:00:00 8,1 7,0 32 17 44 24 SSW 1025,4 26 0 0,0
23.02.2020 05:00:00 8,2 7,3 28 15 41 22 SSW 1025,8 23 0 0,0
23.02.2020 04:00:00 8,3 7,2 26 14 40 22 SSW 1026,8 23 0 0,0
23.02.2020 03:00:00 8,7 7,1 29 15 41 22 SW 1027,9 22 0 0,2
23.02.2020 02:00:00 8,9 7,0 24 13 39 21 SW 1028,4 18 0 0,4
23.02.2020 01:00:00 8,7 6,7 27 15 39 21 SW 1028,2 20 0 0,0
23.02.2020 00:00:00 8,8 6,4 24 13 36 19 SW 1028,5 15 0 0,4
22.02.2020 23:00:00 9,0 6,1 26 14 40 21 SSW 1028,5 20 0 0,0
22.02.2020 22:00:00 9,4 5,4 27 15 38 21 SW 1029,1 33 0 0,0
22.02.2020 21:00:00 8,9 5,1 23 12 39 21 SW 1029,3 34 0 0,0
22.02.2020 20:00:00 9,5 4,3 27 15 45 24 WSW 1028,6 20 0 0,0
22.02.2020 19:00:00 10,8 2,1 25 14 47 26 WSW 1027,8 45 0 0,0

tt = Température de l'air
td = dewpoint
ff = Vitesse du vent
fx = gusts
dd = Direction du vent
ppp = reduced air pressure
vv = visibility
sd = Ensoleillement
rr = Quantités de précipitations

stations d'obs. à proximité